Greenville Downtown, SC

7:26 AM EDT on April 30, 2017 (GMT -0400)
Greenville Downtown

Weather History for KGMU - November, 2011

Change the Weather History Date:

Friday, November 4, 2011

  Actual Average Record
Temperature  
Mean Temperature 56 °F -  
Max Temperature 64 °F 64 °F 75 °F (2003)
Min Temperature 48 °F 45 °F 30 °F (2006)
Degree Days  
Heating Degree Days 9    
Growing Degree Days 6 (Base 50)    
Moisture  
Dew Point 47 °F    
Average Humidity 77    
Maximum Humidity 100    
Minimum Humidity 43    
Precipitation  
Precipitation 0.08 in - - ()
Sea Level Pressure  
Sea Level Pressure 29.87 in    
Wind  
Wind Speed 8 mph (North)    
Max Wind Speed 17 mph    
Max Gust Speed 24 mph    
Visibility 10 miles    
Events Rain    
Averages and records for this station are not official NWS values.
T = Trace of Precipitation, MM = Missing Value Source: NWS Daily Summary

Daily Weather History Graph

Daily Weather History Graph

Search for Another Location

Airport or City:

Trip Planner

Search our weather history database for the weather conditions in past years. The results will help you decide how hot, cold, wet, or windy it might be!

Date:

Astronomy

Nov. 04, 2011 Rise Set
Actual Time 7:52 AM EDT 6:32 PM EDT
Civil Twilight 7:26 AM EDT 6:58 PM EDT
Nautical Twilight 6:56 AM EDT 7:28 PM EDT
Astronomical Twilight 6:26 AM EDT 7:58 PM EDT
Moon 3:12 PM EDT (11/4) 2:16 AM EDT (11/4)
Length of Visible Light 11h 32m
Length of Day
10h 40m
Waxing Gibbous, 69% of the Moon is Illuminated
Nov 4
Waxing Gibbous
Nov 10
Full
Nov 18
Last Quarter
Nov 25
New
Dec 2
First Quarter

Hourly Weather History & Observations

Time (EDT) Temp. Dew Point Humidity Pressure Visibility Wind Dir Wind Speed Gust Speed Precip Events Conditions
12:01 AM 55.4 °F 55.4 °F 100% 29.82 in 10.0 mi Variable 5.8 mph - N/A   Overcast
12:30 AM 55.4 °F 53.6 °F 94% 29.80 in 10.0 mi Calm Calm - N/A   Overcast
12:53 AM 54.0 °F 53.1 °F 97% 29.78 in 10.0 mi NNE 4.6 mph - N/A   Overcast
1:21 AM 53.6 °F 51.8 °F 94% 29.79 in 10.0 mi NE 4.6 mph - N/A   Overcast
1:28 AM 53.6 °F 51.8 °F 94% 29.79 in 10.0 mi NNE 5.8 mph - N/A   Overcast
1:42 AM 53.6 °F 51.8 °F 94% 29.79 in 10.0 mi NNE 12.7 mph - N/A   Overcast
1:53 AM 53.1 °F 52.0 °F 96% 29.78 in 10.0 mi NE 9.2 mph - N/A   Overcast
2:53 AM 53.1 °F 51.1 °F 93% 29.76 in 10.0 mi NNE 6.9 mph - N/A   Overcast
3:26 AM 51.8 °F 50.0 °F 94% 29.76 in 10.0 mi NE 8.1 mph - N/A   Mostly Cloudy
3:49 AM 53.6 °F 51.8 °F 94% 29.77 in 10.0 mi NE 8.1 mph - N/A   Mostly Cloudy
4:23 AM 53.6 °F 51.8 °F 94% 29.76 in 10.0 mi NE 8.1 mph - N/A   Overcast
4:53 AM 52.0 °F 51.1 °F 97% 29.75 in 10.0 mi NE 9.2 mph - N/A   Overcast
5:53 AM 53.1 °F 50.0 °F 89% 29.75 in 10.0 mi NNE 6.9 mph - N/A   Overcast
6:16 AM 53.6 °F 51.8 °F 94% 29.77 in 10.0 mi NNE 5.8 mph - N/A   Overcast
6:53 AM 52.0 °F 46.9 °F 83% 29.77 in 10.0 mi North 13.8 mph 20.7 mph 0.00 in Rain Light Rain
7:53 AM 48.0 °F 45.0 °F 89% 29.81 in 4.0 mi North 15.0 mph 24.2 mph 0.06 in Rain Heavy Rain
8:53 AM 48.9 °F 44.1 °F 83% 29.84 in 10.0 mi NNW 11.5 mph - 0.02 in Rain Light Rain
9:53 AM 51.1 °F 44.1 °F 77% 29.86 in 10.0 mi North 12.7 mph 19.6 mph 0.00 in   Mostly Cloudy
10:53 AM 54.0 °F 44.1 °F 69% 29.87 in 10.0 mi North 15.0 mph 23.0 mph N/A   Mostly Cloudy
11:53 AM 59.0 °F 44.1 °F 58% 29.90 in 10.0 mi North 15.0 mph 21.9 mph N/A   Scattered Clouds
12:53 PM 62.1 °F 44.1 °F 52% 29.89 in 10.0 mi North 16.1 mph 21.9 mph N/A   Clear
1:53 PM 63.0 °F 43.0 °F 48% 29.89 in 10.0 mi NNW 17.3 mph 23.0 mph N/A   Clear
2:53 PM 64.0 °F 42.1 °F 45% 29.90 in 10.0 mi North 13.8 mph 20.7 mph N/A   Clear
3:53 PM 64.9 °F 42.1 °F 43% 29.91 in 10.0 mi NNW 11.5 mph 18.4 mph N/A   Clear
4:53 PM 64.0 °F 42.1 °F 45% 29.94 in 10.0 mi North 10.4 mph 19.6 mph N/A   Clear
5:53 PM 62.1 °F 42.1 °F 48% 29.98 in 10.0 mi NNW 9.2 mph - N/A   Partly Cloudy
6:53 PM 57.9 °F 43.0 °F 58% 30.01 in 10.0 mi NNW 9.2 mph - N/A   Clear
7:53 PM 55.9 °F 43.0 °F 62% 30.03 in 10.0 mi North 8.1 mph - N/A   Clear
8:53 PM 55.0 °F 43.0 °F 64% 30.05 in 10.0 mi North 5.8 mph - N/A   Clear
9:53 PM 53.1 °F 43.0 °F 69% 30.08 in 10.0 mi North 4.6 mph - N/A   Clear
10:53 PM 52.0 °F 43.0 °F 71% 30.10 in 10.0 mi North 6.9 mph - N/A   Clear
11:53 PM 52.0 °F 43.0 °F 71% 30.11 in 10.0 mi North 6.9 mph - N/A   Clear